Estación de San Rafael

Ultimos registro cada 15 minutos 95
Estación Fecha / Hora Temperatura Humedad Lluvia Velocidad Dirección Radiación Presion
95 San Rafael 03-09-2026 23:30 8,3 84,7 0 0 181 0,6 1006
94 San Rafael 03-09-2026 23:15 9 83,4 0 0,5 187 0,6 1006
93 San Rafael 03-09-2026 23:00 9,1 84 0 0,5 190 0,6 1006
92 San Rafael 03-09-2026 22:45 9 84,6 0 0 187 0,6 1005,8
91 San Rafael 03-09-2026 22:30 9,2 84,1 0 0 188 0,6 1005,9
90 San Rafael 03-09-2026 22:15 9,5 83,9 0 0 190 0,6 1005,9
89 San Rafael 03-09-2026 22:00 9,4 84,2 0 0 190 0,6 1005,8
88 San Rafael 03-09-2026 21:45 9,3 83,9 0 0 190 0,6 1005,8
87 San Rafael 03-09-2026 21:30 9,9 82,3 0 0 190 0,6 1005,9
86 San Rafael 03-09-2026 21:15 10,2 81,5 0 0 183 0,6 1005,9
85 San Rafael 03-09-2026 21:00 10,6 80,1 0 0,5 187 0,6 1005,8
84 San Rafael 03-09-2026 20:45 10,8 79,1 0 0,5 190 0,6 1005,6
83 San Rafael 03-09-2026 20:30 11 77,8 0 0,5 188 0,6 1005,3
82 San Rafael 03-09-2026 20:15 11 76,8 0 0 190 0,6 1005,3
81 San Rafael 03-09-2026 20:00 10,9 76,8 0 0 188 0,6 1005,3
80 San Rafael 03-09-2026 19:45 11,4 74 0 0 188 0,6 1004,9
79 San Rafael 03-09-2026 19:30 11,8 72,4 0 0,5 187 0,6 1004,7
78 San Rafael 03-09-2026 19:15 12,4 70,7 0 0,5 187 0,6 1004,7
77 San Rafael 03-09-2026 19:00 12,8 69,3 0 0,5 195 0,6 1004,6
76 San Rafael 03-09-2026 18:45 13,2 68,3 0 0,5 183 0,6 1004,6
75 San Rafael 03-09-2026 18:30 13,8 65,9 0 1 185 3,1 1004,4
74 San Rafael 03-09-2026 18:15 14,6 62,6 0 1,5 181 10,6 1004,3
73 San Rafael 03-09-2026 18:00 15,3 60,6 0 2 178 19,4 1004,1
72 San Rafael 03-09-2026 17:45 15,9 57,5 0 2 184 44,4 1004,1
71 San Rafael 03-09-2026 17:30 16,3 56,4 0 2,5 184 119,4 1003,9
70 San Rafael 03-09-2026 17:15 16,8 56 0 2 178 150,6 1003,8
69 San Rafael 03-09-2026 17:00 16,8 55,1 0 2,5 184 244,4 1003,8
68 San Rafael 03-09-2026 16:45 17,2 56,2 0 2,5 181 348,1 1003,6
67 San Rafael 03-09-2026 16:30 17,6 55 0 2,5 188 401,9 1003,7
66 San Rafael 03-09-2026 16:15 17,7 53,1 0 2,5 183 420,6 1003,5
65 San Rafael 03-09-2026 16:00 18 54,4 0 2,5 187 493,1 1003,4
64 San Rafael 03-09-2026 15:45 17,7 55,2 0 2,5 181 570,6 1003,7
63 San Rafael 03-09-2026 15:30 17,9 52 0 3 195 364,4 1003,6
62 San Rafael 03-09-2026 15:15 17,7 53,7 0 3 183 673,1 1003,6
61 San Rafael 03-09-2026 15:00 18,3 53,3 0 2,5 184 714,4 1003,8
60 San Rafael 03-09-2026 14:45 18,1 54 0 2,5 177 756,9 1003,9
59 San Rafael 03-09-2026 14:30 17,7 55,2 0 3 183 790,6 1003,9
58 San Rafael 03-09-2026 14:15 17,8 52,2 0 3 181 828,1 1004
57 San Rafael 03-09-2026 14:00 17,3 55,7 0 3 195 856,9 1004,3
56 San Rafael 03-09-2026 13:45 17,3 57,4 0 2 184 883,1 1004,4
55 San Rafael 03-09-2026 13:30 17,2 55,7 0 2,5 183 901,9 1004,6
54 San Rafael 03-09-2026 13:15 16,6 55,9 0 2,5 175 885,6 1005
53 San Rafael 03-09-2026 13:00 16,6 57 0 2,5 197 375,6 1005
52 San Rafael 03-09-2026 12:45 16 59,5 0 2,5 192 63,1 1005,4
51 San Rafael 03-09-2026 12:30 15,8 64,6 0 2,5 183 61,9 1005,4
50 San Rafael 03-09-2026 12:15 15,4 68,1 0 2 190 63,1 1005,7
49 San Rafael 03-09-2026 12:00 15,3 70,5 0 2 187 66,9 1005,6
48 San Rafael 03-09-2026 11:45 14,2 73,8 0 2 183 69,4 1005,9
47 San Rafael 03-09-2026 11:30 14,3 78,6 0 1,5 166 69,4 1006
46 San Rafael 03-09-2026 11:15 13,3 81,4 0 2 168 65,6 1006
45 San Rafael 03-09-2026 11:00 12,7 84,5 0 1,5 173 68,1 1006,1
44 San Rafael 03-09-2026 10:45 11,9 87,2 0 1 153 65,6 1006,2
43 San Rafael 03-09-2026 10:30 11 90,9 0 1 154 71,9 1006,3
42 San Rafael 03-09-2026 10:15 10,2 94,9 0 1 181 148,1 1006,3
41 San Rafael 03-09-2026 10:00 10 97,6 0 1 183 248,1 1006
40 San Rafael 03-09-2026 09:45 9,5 98,3 0 2 183 201,9 1006,4
39 San Rafael 03-09-2026 09:30 8,2 98,7 0 1,5 188 241,9 1006,2
38 San Rafael 03-09-2026 09:15 7,8 99,5 0 1 175 289,4 1006,3
37 San Rafael 03-09-2026 09:00 7,1 99,9 0 0,5 167 436,9 1006
36 San Rafael 03-09-2026 08:45 6,4 99,9 0 0,5 157 185,6 1006
35 San Rafael 03-09-2026 08:30 6,5 99,8 0 0,5 167 101,9 1006
34 San Rafael 03-09-2026 08:15 6,3 99,9 0 0 173 159,4 1006
33 San Rafael 03-09-2026 08:00 5,6 99,7 0 0 173 99,4 1006
32 San Rafael 03-09-2026 07:45 5,3 99,7 0 0 173 69,4 1005,9
31 San Rafael 03-09-2026 07:30 5,1 99,4 0 0 173 46,9 1005,8
30 San Rafael 03-09-2026 07:15 5 99,1 0 0 173 8,1 1005,8
29 San Rafael 03-09-2026 07:00 4,7 98,6 0 0 173 1,9 1005,7
28 San Rafael 03-09-2026 06:45 5,1 98,3 0 0 173 0,6 1005,5
27 San Rafael 03-09-2026 06:30 5,1 98 0 0 173 0,6 1005,6
26 San Rafael 03-09-2026 06:15 5,6 98 0 0 173 0,6 1005,5
25 San Rafael 03-09-2026 06:00 5,9 98,1 0 0 173 0,6 1005,4
24 San Rafael 03-09-2026 05:45 5,6 97,8 0 0 173 0,6 1005,2
23 San Rafael 03-09-2026 05:30 5,8 97,6 0 0 173 0,6 1005,1
22 San Rafael 03-09-2026 05:15 4,7 97 0 0 173 0,6 1005,1
21 San Rafael 03-09-2026 05:00 5,6 96,3 0 0 173 0,6 1004,9
20 San Rafael 03-09-2026 04:45 6,1 96 0 0 173 0,6 1005
19 San Rafael 03-09-2026 04:30 6,6 95,7 0 0 173 0,6 1005
18 San Rafael 03-09-2026 04:15 6,6 95 0 0 173 0,6 1004,9
17 San Rafael 03-09-2026 04:00 7,2 94,4 0 0 173 0,6 1004,7
16 San Rafael 03-09-2026 03:45 7,4 93,9 0 0 180 0,6 1004,6
15 San Rafael 03-09-2026 03:30 7,6 94 0 0 187 0,6 1004,8
14 San Rafael 03-09-2026 03:15 7,7 94 0 0 184 0,6 1004,8
13 San Rafael 03-09-2026 03:00 7,7 93,5 0 0 175 0,6 1004,8
12 San Rafael 03-09-2026 02:45 8 92,4 0 0 178 0,6 1005
11 San Rafael 03-09-2026 02:30 8,5 91,6 0 0,5 183 0,6 1005,2
10 San Rafael 03-09-2026 02:15 8,9 90,8 0 1 185 0,6 1005,2
9 San Rafael 03-09-2026 02:00 9,3 90,7 0 0,5 188 0,6 1005,1
8 San Rafael 03-09-2026 01:45 9,4 90,7 0 0,5 185 0,6 1005,1
7 San Rafael 03-09-2026 01:30 9,5 90,7 0 0,5 183 0,6 1005,1
6 San Rafael 03-09-2026 01:15 9,5 91,1 0 0,5 192 0,6 1005,1
5 San Rafael 03-09-2026 01:00 9,3 91,1 0 1 194 0,6 1004,9
4 San Rafael 03-09-2026 00:45 9,8 90 0 0,5 201 0,6 1004,7
3 San Rafael 03-09-2026 00:30 10,3 89,7 0 1 190 0,6 1004,7
2 San Rafael 03-09-2026 00:15 10,2 89,7 0 0,5 188 0,6 1004,7
1 San Rafael 03-09-2026 00:00 10,6 89,5 0 1 181 0,6 1004,6